Home > Time Zones > World Clock > Weather > Iran > Tehran > Past weeks

Flag for Iran Weather past 2 weeks in Tehran, Iran

Now
63 °F

Passing clouds.


Feels Like: 63 °F
Forecast: 55 / 79 °F
Wind: No wind

Location: Tehran-Mehrabad

Current Time: Oct 23, 2014 at 9:26:52 PM

Latest Report: Oct 23, 2014 at 9:00 PM


Visibility: 3 mi

Pressure: 30.12 "Hg

Humidity: 49%

Dew point: 43 °F

Location of TehranLocation

Historic Weather in Tehran — Graph

°F

Tehran temperature yesterday

Maximum temperature yesterday: 66 °F (at 1:30 PM)
Minimum temperature yesterday: 48 °F (at 6:30 AM)
Average temperature yesterday: 58 °F

Past Weeks' High & Low Weather Summary

 TemperatureHumidityPressure
High79 °F (Oct 16, 1:00 PM)93% (Oct 20, 10:30 AM)30.33 "Hg (Oct 20, 10:30 AM)
Low32 °F (Oct 20, 10:30 AM)16% (Oct 10, 5:00 PM)29.86 "Hg (Oct 19, 3:30 AM)
Average64 °F41%30.10 "Hg
* Reported Oct 8 7:30 PM — Oct 23 8:00 PM, Tehran, Weather by CustomWeather, © 2014

Note: Actual official high and low records may vary slightly from our data, if they occured in-between our weather recording intervals... More about our weather records

Advertising

Tehran weather history for previous 24 hours

 ConditionsComfort  
Time TempWeatherWind HumidityBarometerVisibility
8:00 PM
Oct 23
64 °FPassing clouds.No wind43%30.12 "Hg3 mi
7:30 PM64 °FPassing clouds.No wind40%30.12 "Hg3 mi
7:00 PM66 °FPassing clouds.No wind37%30.12 "Hg2 mi
6:30 PM68 °FPassing clouds.No wind35%30.12 "Hg2 mi
6:00 PM68 °FPassing clouds.5 mph33%30.09 "Hg2 mi
5:30 PM70 °FPartly sunny.5 mph31%30.09 "Hg2 mi
5:00 PM70 °FPartly sunny.5 mph31%30.12 "Hg2 mi
4:30 PM70 °FPartly sunny.5 mph31%30.12 "Hg2 mi
4:00 PM72 °FHaze.7 mph31%30.12 "Hg2 mi
3:30 PM72 °FHaze.7 mph31%30.12 "Hg2 mi
3:00 PM72 °FHaze.7 mph31%30.12 "Hg2 mi
2:30 PM72 °FHaze.5 mph31%30.12 "Hg2 mi
2:00 PM72 °FSunny.5 mph31%30.12 "Hg2 mi
1:30 PM70 °FSunny.7 mph33%30.12 "Hg2 mi
1:00 PM70 °FSunny.7 mph33%30.15 "Hg2 mi
12:30 PM68 °FSunny.5 mph35%30.15 "Hg2 mi
12:00 PM68 °FSunny.7 mph38%30.15 "Hg2 mi
11:30 AM66 °FSunny.7 mph37%30.18 "Hg2 mi
11:00 AM66 °FSunny.7 mph43%30.18 "Hg2 mi
10:30 AM64 °FSunny.7 mph46%30.18 "Hg2 mi
10:00 AM64 °FSunny.5 mph46%30.18 "Hg2 mi
9:30 AM63 °FSunny.5 mph49%30.18 "Hg2 mi
9:00 AM63 °FSunny.5 mph49%30.18 "Hg2 mi
8:30 AM61 °FSunny.No wind48%30.18 "Hg2 mi
8:00 AM59 °FSunny.5 mph48%30.15 "Hg3 mi
7:30 AM55 °FSunny.7 mph47%30.15 "Hg3 mi
7:00 AM54 °FSunny.No wind67%30.12 "Hg2 mi
6:00 AM52 °FClear.No wind67%30.12 "Hg4 mi
5:30 AM52 °FClear.No wind67%30.12 "Hg10 mi
5:00 AM55 °FClear.No wind55%30.12 "Hg10 mi
4:30 AM55 °FClear.No wind55%30.12 "Hg10 mi
3:30 AM55 °FClear.5 mph59%30.12 "Hg10 mi
3:00 AM55 °FClear.5 mph63%30.12 "Hg10 mi
2:30 AM55 °FClear.5 mph63%30.12 "Hg10 mi
2:00 AM55 °FClear.5 mph63%30.09 "Hg10 mi
1:30 AM55 °FClear.5 mph67%30.09 "Hg10 mi
1:00 AM57 °FClear.No wind63%30.09 "Hg10 mi
12:30 AM57 °FClear.7 mph63%30.09 "Hg10 mi
12:00 AM57 °FClear.5 mph67%30.09 "Hg10 mi
11:30 PM
Oct 22
57 °FClear.5 mph63%30.09 "Hg10 mi
11:00 PM57 °FClear.5 mph63%30.09 "Hg10 mi
10:30 PM57 °FClear.No wind63%30.09 "Hg10 mi
10:00 PM57 °FClear.No wind67%30.09 "Hg10 mi
9:30 PM59 °FClear.No wind59%30.09 "Hg10 mi
9:00 PM59 °FClear.No wind59%30.07 "Hg10 mi
Weather by CustomWeather, © 2014

See weather overviewHow to use our weather pages